Weather in Pobeda

Russia / Omsk Oblast     54°03′01″N   74°29′17″E
temp.,
°C
wind,
m/s
gust,
m/s
humid.,
%
clouds,
%
prec.,
mm/h
press.,
hPa
HPBL,
m
16 april, fri
fri1600:00+3w349036 0.0 102148
03:00+3w358863 0.0 102054
06:00+3wsw47895 0.0 101982
09:00+9wsw513765 0.0 1018309
12:00+14w7105418 0.0 1017555
15:00+16wnw68535 0.0 10161075
18:00+9n81284100 0.1 1018534
21:00+7nne71082100 0.0 1021701
17 april, sat
sat1700:00+4nne410835 0.0 1023547
03:00+2nne589097 0.0 1023503
06:00+2ne4672100 0.0 1025854
09:00+2ne337433 0.0 1026758
12:00+4n33555 0.0 10261145
15:00+6wnw33435 0.0 10241360
18:00+7wnw34405 0.0 10231464
21:00+5w22530 0.0 102210
18 april, sun
sun1800:00+3sw22590 0.0 102118
03:00+2ssw4868100 0.0 1018128
06:00+2sw498099 0.0 1016158
09:00+6wsw61268100 0.0 1013479
12:00+9w81058100 0.2 10121491
15:00+10w101449100 0.5 10102129
18:00+7nw91376100 0.9 10111281
21:000nnw101393100 1.3 1016830
19 april, mon
mon1900:00−3n8126979 1.5 10211101
03:00−4n79595 0.0 10251148
06:00−6n795361 0.0 10281137
09:00−5n7844100 0.0 10311448
12:00−3n6736100 0.0 10321785
15:00−2n6733100 0.0 10332075
18:00−2n6735100 0.0 10331970
21:00−4nne37485 0.0 1034373
20 april, tue
tue2000:00−4n36535 0.0 1035608
03:00−4nnw25525 0.0 1035400
06:00−4nw35540 0.0 1036282
09:00−2nw44385 0.0 10361392
12:000nw45335 0.0 10351730
15:00+3wnw56335 0.0 10331826
18:00+3wnw68365 0.0 10311717
21:00+1wsw4105771 0.0 1031215